User: anonymous   Login
Location: Newark
(22.8000°N, 86.1800°E)
Time: 08:32:12
(UTC+00:00)
Language:

CUBEBUG 2 - Orbit

View from above orbital plane
View from above orbital plane
View from above satellite
View from above satellite

Ground track
Ground track

The orbit data is extracted from the following two-line orbital elements,

1 39440U 13066AA  20157.69400586 +.00000194 +00000-0 +33820-4 0  9993
2 39440 097.6302 140.8451 0080690 019.4999 340.9267 14.76011331350844
Epoch (UTC): 05 June 2020 16:39:22
Eccentricity: 0.0080690
inclination: 97.6302°
perigee height: 585 km
apogee height: 698 km
right ascension of ascending node: 140.8451°
argument of perigee: 19.4999°
revolutions per day: 14.76011331
mean anomaly at epoch: 340.9267°
orbit number at epoch: 35084

The dashed part of the orbit path shows where the satellite is in the earth's shadow,  

DLR